Lexington Weather

Lexington, Massachusetts, USA

68°F
9/23/2021 4:59am 
  • Lexington Conditions: Overcast
  • Temperature: 67.5°F / 19.7°CWarmer 0.9°F than last hour.
  • Dew Point: 66.6°FIncreased 1.3°Fsince last hour.
  • Relative Humidity: 97%Increased 1.0% since last hour.
  • Wind: Wind from SW SW Calm, 10-min avg: 1 mph, gust: 5 mph
  • Barometer: 30.03 in Steady
  • Visibility: 10 miles
  • Rain Today: 0.00 in
  •   

Regional Weather Roundup
for Boston / Norton, MA

        
000
ASUS41 KBOX 220404
RWRBOX

REGIONAL WEATHER ROUNDUP
NATIONAL WEATHER SERVICE BOSTON/NORTON MA
1200 AM EDT WED SEP 22 2021

NOTE:  "FAIR" INDICATES FEW OR NO CLOUDS BELOW 12,000 FEET WITH NO 
SIGNIFICANT WEATHER AND/OR OBSTRUCTIONS TO VISIBILITY.

MAZALL-220500-
EASTERN MASSACHUSETTS
  
CITY           SKY/WX    TMP DP  RH WIND       PRES   REMARKS
BOSTON         CLOUDY    69  65  86 E5        30.30F                  
BEVERLY        CLOUDY    68  66  93 SE6       30.30F                  
LAWRENCE       PTCLDY    66  64  93 CALM      30.32F                  
BEDFORD        CLOUDY    64  62  93 CALM      30.29F                  
BLUE HILL      NOT AVBL                                               
NORWOOD        CLOUDY    70  66  87 CALM      30.30S                  
MARSHFIELD     CLOUDY    66  66 100 SE7       30.30F                  
PLYMOUTH       PTCLDY    66  65  96 SE3       30.31F                  
TAUNTON        CLOUDY    69  66  90 SE5       30.29F                  
NEW BEDFORD    CLOUDY    70  68  93 SE6       30.30F                  
$$

MAZALL-220500-
CAPE COD AND THE ISLANDS
  
CITY           SKY/WX    TMP DP  RH WIND       PRES   REMARKS
FALMOUTH       CLOUDY    68  68 100 SE1       30.32F                  
HYANNIS        CLOUDY    69  66  90 VRB7      30.31S                  
CHATHAM        CLOUDY    67  62  84 VRB6      30.33F                  
PROVINCETOWN   MOCLDY    66  65  96 SE6       30.32F                  
NANTUCKET      CLEAR     69  65  86 SE10      30.32F                  
MARTHAS VNYRD  CLEAR     68  66  93 SE8       30.31S                  
$$
 
MAZALL-220500-
CENTRAL AND WESTERN MASSACHUSETTS
  
CITY           SKY/WX    TMP DP  RH WIND       PRES   REMARKS
WORCESTER      CLOUDY    64  63  96 S6        30.32F FOG              
FITCHBURG      CLOUDY    61  58  90 NW3       30.31F                  
ORANGE         CLOUDY    59  57  93 CALM      30.31F                  
SPRINGFIELD    CLOUDY    61  61  99 CALM      30.28F                  
WESTFIELD      CLOUDY    63  63 100 CALM      30.28F                  
NORTH ADAMS    PTCLDY    61  57  87 E7        30.28F                  
PITTSFIELD     PTCLDY    58  57  97 CALM      30.29S                  
$$
 
RIZALL-220500-
RHODE ISLAND
  
CITY           SKY/WX    TMP DP  RH WIND       PRES   REMARKS
PROVIDENCE     CLOUDY    70  68  93 SE3       30.29F                  
NEWPORT        CLOUDY    68  67  96 SE7       30.29F                  
BLOCK ISLAND   CLEAR     69  67  93 SE9       30.28F                  
SMITHFIELD     LGT RAIN  67  67 100 VRB3      30.30F                  
WESTERLY       MOCLDY    68  68 100 SE5       30.28F                  
$$
 
CTZALL-220500-
CONNECTICUT
  
CITY           SKY/WX    TMP DP  RH WIND       PRES   REMARKS
BRADLEY INTL   CLOUDY    64  61  90 CALM      30.28F                  
HARTFORD       CLOUDY    66  61  84 CALM      30.27F                  
BRIDGEPORT     CLOUDY    71  66  84 NE7       30.26S                  
DANBURY        LGT RAIN  68  64  87 E5        30.28S                  
GROTON         CLOUDY    69  68  96 E6        30.27S                  
NEW HAVEN      CLOUDY    69  66  90 E3        30.26F                  
CHESTER        CLOUDY    66  64  94 CALM      30.28F                  
MERIDEN        CLOUDY    63  60  90 CALM      30.27F                  
WILLIMANTIC    CLOUDY    63  60  90 CALM      30.30S                  
OXFORD         CLOUDY    64  63  96 E5        30.29F                  
$$

MEZ002-015-021-024-NHZ003-005-008-011-012-014-VTZ005-008-220500-
NORTHERN NEW ENGLAND
  
CITY           SKY/WX    TMP DP  RH WIND       PRES   REMARKS
PORTLAND ME    CLOUDY    61  60  97 CALM      30.32F                  
BANGOR ME      PTCLDY    60  59  96 S6        30.34F                  
CONCORD NH     PTCLDY    57  56  96 CALM      30.31F                  
MANCHESTER NH  CLOUDY    64  60  87 CALM      30.29F                  
NASHUA NH      CLOUDY    61  61 100 CALM      30.31F                  
PORTSMOUTH NH  CLOUDY    63  61  94 SE3       30.32F                  
JAFFREY NH     MOCLDY    57  57 100 CALM      30.32F                  
KEENE NH       CLOUDY    57  56  96 CALM      30.31S                  
BURLINGTON VT  PTCLDY    64  53  67 S6        30.22F                  
MT. WASHINGTON MOCLDY    45  37  76 SW29G35     N/A                   
$$

NYZ052-076-220500-
EASTERN NEW YORK
  
CITY           SKY/WX    TMP DP  RH WIND       PRES   REMARKS
ALBANY         MOCLDY    62  60  93 S9        30.25F                  
NEW YORK CITY  CLOUDY    72  67  84 E5        30.23F                  
$$
 
ANZALL-220500-
MARINE OBSERVATIONS
  
STATION/POSITION TIME  TEMP    WIND        PRES    VSBY  WAVE
                       AIR SEA DIR/SP/G                  HT/PER
                 (UTC) (F)     (DEG/KT/KT) (MB)    (MI)  (FT/S)
BOSTON BUOY      0340      66  140/ 12/ 16 1026.4F
BUZZARDS BAY     0300          130/ 14/ 15 1027.1F
NANTUCKET SOUND  0340   71 72  130/ 16/ 17 1026.3F
MASS BAY-STELLWA 0304   67     170/ 10/ 14 1026.2F  1 7/8  4/ 8
ISLE OF SHOALS   0300   66     160/ 14/ 14 1026.2F
S OF BLOCK IS    0326      70                N/A           4/12
$$

......................KEY.........................
  SKY/WX - SKY CONDITION/PRESENT WEATHER
  TMP    - TEMPERATURE IN FAHRENHEIT
  DWPT   - DEWPOINT IN FAHRENHEIT
  RH     - RELATIVE HUMIDITY IN PERCENT
  WIND   - DIRECTION AND SPEED IN MPH
  PRES   - MEAN SEA LEVEL PRESSURE IN INCHES OF HG
  WCI    - WIND CHILL INDEX
  VSB    - VISIBILITY IN MILES
  HX     - HEAT INDEX
  TC     - TEMPERATURE IN CELSIUS
  VRB    - VARIABLE WIND DIRECTION
  N/A    - NOT AVAILABLE
  
      

Other recent Regional Weather Roundups

Thu Sep 23, 4:04am

Thu Sep 23, 3:04am

Thu Sep 23, 2:04am

Thu Sep 23, 1:04am

Thu Sep 23, 12:04am

Wed Sep 22, 11:04pm

Wed Sep 22, 10:04pm

Wed Sep 22, 9:04pm

Wed Sep 22, 8:04pm

Wed Sep 22, 7:04pm

Wed Sep 22, 6:04pm

Wed Sep 22, 5:04pm

Wed Sep 22, 4:04pm

Wed Sep 22, 3:04pm

Wed Sep 22, 2:04pm

Wed Sep 22, 1:04pm

Wed Sep 22, 12:05pm

Wed Sep 22, 11:04am

Wed Sep 22, 10:04am

Wed Sep 22, 9:04am

Wed Sep 22, 8:04am

Wed Sep 22, 7:04am

Wed Sep 22, 6:04am

Wed Sep 22, 5:04am

Wed Sep 22, 4:04am

Wed Sep 22, 3:04am

Wed Sep 22, 2:04am

Wed Sep 22, 1:04am

Tue Sep 21, 11:04pm

Tue Sep 21, 10:04pm

Tue Sep 21, 9:04pm

Tue Sep 21, 8:04pm

Tue Sep 21, 7:04pm

Tue Sep 21, 6:04pm

Tue Sep 21, 5:04pm

Tue Sep 21, 4:04pm

Tue Sep 21, 3:04pm

Tue Sep 21, 2:04pm

Tue Sep 21, 1:04pm

Tue Sep 21, 12:04pm

Tue Sep 21, 11:04am

Tue Sep 21, 10:04am

Tue Sep 21, 9:04am

Tue Sep 21, 8:04am

Tue Sep 21, 7:04am

Tue Sep 21, 6:04am

Tue Sep 21, 5:04am

Tue Sep 21, 4:04am

Tue Sep 21, 3:04am

Tue Sep 21, 2:04am

Tue Sep 21, 1:04am

Tue Sep 21, 12:04am

Mon Sep 20, 11:04pm

Mon Sep 20, 10:04pm

Mon Sep 20, 9:04pm

Mon Sep 20, 8:04pm

Mon Sep 20, 7:04pm

Mon Sep 20, 6:04pm

Mon Sep 20, 5:04pm

Mon Sep 20, 4:04pm

Mon Sep 20, 3:04pm

Mon Sep 20, 2:04pm

Mon Sep 20, 1:04pm

Mon Sep 20, 12:04pm

Mon Sep 20, 11:04am

Mon Sep 20, 10:04am

Mon Sep 20, 9:04am

Mon Sep 20, 7:04am

Mon Sep 20, 6:04am

Mon Sep 20, 5:04am

Mon Sep 20, 4:04am

Mon Sep 20, 3:04am

Mon Sep 20, 2:04am

Mon Sep 20, 1:04am

Mon Sep 20, 12:04am

Sun Sep 19, 11:04pm

Sun Sep 19, 10:04pm

Sun Sep 19, 9:04pm

Sun Sep 19, 8:04pm

Sun Sep 19, 7:04pm

Sun Sep 19, 6:04pm

Sun Sep 19, 5:04pm

Sun Sep 19, 4:04pm

Sun Sep 19, 3:04pm

Sun Sep 19, 2:05pm

Sun Sep 19, 1:04pm

Sun Sep 19, 12:04pm

Sun Sep 19, 11:04am

Sun Sep 19, 10:05am

Sun Sep 19, 9:04am

Sun Sep 19, 8:04am

Sun Sep 19, 7:04am

Sun Sep 19, 6:04am

Sun Sep 19, 5:04am

Sun Sep 19, 4:04am

Sun Sep 19, 3:04am

Sun Sep 19, 2:04am

Sun Sep 19, 1:04am

Sun Sep 19, 12:04am

Sat Sep 18, 11:05pm

Sat Sep 18, 10:04pm

Sat Sep 18, 9:04pm

Sat Sep 18, 8:04pm

Sat Sep 18, 7:04pm

Sat Sep 18, 6:04pm

Sat Sep 18, 5:04pm

Sat Sep 18, 4:04pm

Sat Sep 18, 3:04pm

Sat Sep 18, 2:04pm

Sat Sep 18, 1:04pm

Sat Sep 18, 12:04pm

Sat Sep 18, 11:04am

Sat Sep 18, 10:04am

Sat Sep 18, 9:04am

Sat Sep 18, 8:04am

Sat Sep 18, 7:04am

Sat Sep 18, 6:04am

Sat Sep 18, 5:04am

Sat Sep 18, 4:04am

Sat Sep 18, 3:04am

Sat Sep 18, 2:04am

Sat Sep 18, 1:04am

Sat Sep 18, 12:04am

Fri Sep 17, 11:04pm

Fri Sep 17, 10:04pm

Fri Sep 17, 9:04pm

Fri Sep 17, 8:04pm

Fri Sep 17, 7:04pm

Fri Sep 17, 6:04pm

Fri Sep 17, 5:04pm

Fri Sep 17, 4:04pm

Fri Sep 17, 3:04pm

Fri Sep 17, 2:04pm

Fri Sep 17, 1:04pm

Fri Sep 17, 12:05pm

Fri Sep 17, 11:04am

Fri Sep 17, 10:04am

Fri Sep 17, 9:04am

Fri Sep 17, 8:04am

Fri Sep 17, 7:04am

Fri Sep 17, 6:04am

Fri Sep 17, 5:04am

Fri Sep 17, 4:04am

Fri Sep 17, 3:04am

Fri Sep 17, 2:04am

Fri Sep 17, 1:04am

Fri Sep 17, 12:04am

Thu Sep 16, 11:04pm

Thu Sep 16, 10:04pm

Thu Sep 16, 9:04pm

Thu Sep 16, 8:04pm

Thu Sep 16, 7:04pm

Thu Sep 16, 6:04pm

Thu Sep 16, 5:04pm

Thu Sep 16, 4:04pm

Thu Sep 16, 3:04pm

Thu Sep 16, 2:04pm

Thu Sep 16, 1:05pm

Thu Sep 16, 12:04pm

Thu Sep 16, 11:05am

Thu Sep 16, 10:05am

Thu Sep 16, 9:04am

Thu Sep 16, 8:04am

Thu Sep 16, 7:04am

Thu Sep 16, 6:04am

Thu Sep 16, 5:04am

Meta data:

ID: 8153ba97-ab5d-487a-8366-6d6278a85165
Link: https://api.weather.gov/products/8153ba97-ab5d-487a-8366-6d6278a85165